Regional Weather Roundup
Issued by NWS

Home | Current Version | Previous Version | Text Only | Print | Product List | Glossary Off
Versions: 1 2 3 4 5 6 7 8 9 10 11 12 13 14 15 16 17 18 19 20 21 22 23 24 25 26 27 28 29 30 31 32 33 34 35 36 37 38 39 40 41 42 43 44 45 46 47 48 49 50

000
ASUS45 KCYS 090810
RWRWY

WYOMING REGIONAL WEATHER ROUNDUP
NATIONAL WEATHER SERVICE CHEYENNE WY
200 AM MDT WED JUL 09 2014

NOTE:  "FAIR" INDICATES FEW OR NO CLOUDS BELOW 12,000 FEET
WITH NO SIGNIFICANT WEATHER AND/OR OBSTRUCTIONS TO VISIBILITY.

WYZ001-090900-
YELLOWSTONE NATIONAL PARK

CITY           SKY/WX    TMP DP  RH WIND       PRES   REMARKS
LK YELLOWSTONE   N/A     46  39  76 NW3       30.31R
W YELLOWSTONE  NOT AVBL

$$
WYZ002>013-054>058-071-098>099-090900-
NORTHERN WYOMING

CITY           SKY/WX    TMP DP  RH WIND       PRES   REMARKS
JACKSON        CLEAR     52  45  76 CALM      30.19S
CODY           CLEAR     63  46  55 S6        30.10S
GREYBULL       CLEAR     67  49  52 CALM      30.01S
WORLAND        CLEAR     64  47  53 E3        30.02F
SHERIDAN       PTCLDY    57  51  80 W3        30.06F
BUFFALO        PTCLDY    63  46  54 S5        30.13F
GILLETTE       PTCLDY    64  49  57 S15       30.09F
HULETT         FAIR      59  46  63 MISG      30.13
NEWCASTLE      FAIR      61  45  55 CALM      30.13

$$
WYZ014>020-022>026-101>103-090900-
CENTRAL WYOMING

CITY           SKY/WX    TMP DP  RH WIND       PRES   REMARKS
BIG PINEY      CLEAR     56  38  50 NE5       30.22S
PINEDALE       MOSUNNY   50  46  87 W6        30.23F
DUBOIS         FAIR      55  43  62 NW6       30.25S
LANDER         MOCLDY    69  43  38 NW10      30.10S
RIVERTON       PTCLDY    67  42  40 NE10      30.10F
CASPER         PTCLDY    58  43  57 NW8       30.11S
DOUGLAS        CLEAR     62  47  57 E9        30.10F

$$
WYZ021-027>030-104>119-090900-
SOUTHERN WYOMING

CITY           SKY/WX    TMP DP  RH WIND       PRES   REMARKS
EVANSTON       PTCLDY    62  38  40 S8        30.25R
FORT BRIDGER   FAIR      67  34  29 SW8       30.25S
ROCK SPRINGS   CLEAR     66  28  24 S8        30.18S
DIXON          FAIR      61  38  41 CALM      30.21S
RAWLINS          N/A     59  46  62 CALM      30.19S
SARATOGA       FAIR      64  43  45 SE15      30.21S
LARAMIE        PTCLDY    57  53  86 S12       30.25F
CHEYENNE       CLEAR     59  54  83 SW8       30.20F
TORRINGTON     CLEAR     61  51  70 E10       30.08F

$$



USA.gov is the U.S. government's official web portal to all federal, state and local government web resources and services.